Location: Владивосток
(43.1151°N, 131.8856°E)
Time: 02:31:17
(UTC+10:00)

FO-29 - Pass Details

Date: 30 April 2024
Orbit: 801 x 1320 km, 98.6° (Epoch: 19 May)

Event Time Altitude Azimuth Distance (km) Brightness Sun altitude
Rises 01:18:32 0° 28° (NNE) 4,291 13.7 -32.1°
Reaches altitude 10° 01:22:29 10° 47° (NE) 3,347 12.8 -32.1°
Maximum altitude 01:27:23 18° 86° (E) 2,808 11.9 -32.0°
Enters shadow 01:29:51 15° 108° (ESE) 2,946 11.8 -31.9°
